History for Miami, FL

Wednesday, January 16, 2013 — View Current Conditions

Jump to Data:

Date:
Airport Code:
Recently Viewed Airport Codes: KMIA
Daily Summary
  Actual Average Record
Temperature
Mean Temperature 73°F 68°F  
Max Temperature 81°F 76°F 86°F (1946)
Min Temperature 65°F 60°F 39°F (1927)
Degree Days
Heating Degree Days 0 2  
Month to date heating degree days 0 32  
Since 1 July heating degree days 16 69  
Cooling Degree Days 8 5  
Month to date cooling degree days 172 80  
Year to date cooling degree days 172 80  
Growing Degree Days 22 (Base 50)    
Moisture
Dew Point 66°F    
Average Humidity 78    
Maximum Humidity 93    
Minimum Humidity 62    
Precipitation
Precipitation T in 0.05 in 1.30 in (1930)
Month to date precipitation 0.20 0.80  
Year to date precipitation 0.20 0.80  
Snow
Snow 0.00 in in in ()
Month to date snowfall 0.0  
Since 1 July snowfall 0.0  
Snow Depth 0.00 in    
Sea Level Pressure
Sea Level Pressure 30.07 in    
Wind
Wind Speed 5 mph (SE)    
Max Wind Speed 16 mph    
Max Gust Speed 22 mph    
Visibility 10 miles    
Events Rain    
T = Trace of Precipitation, MM = Missing Value Source: NWS Daily Summary

Show full METARS

(help) - Comma Delimited File

Hourly Observations

Time(EST) Temperature Dew Point Humidity Sea Level Pressure Visibility Wind Direction Wind Speed Gust Speed Precipitation Events Conditions
12:53 AM 69.1°F 62.1°F 78% 30.06 in 10.0 miles ESE 4.6 mph - N/A   Clear
1:53 AM 69.1°F 62.1°F 78% 30.06 in 10.0 miles Calm Calm - N/A   Clear
2:53 AM 68.0°F 63.0°F 84% 30.06 in 10.0 miles Calm Calm - N/A   Partly Cloudy
3:53 AM 68.0°F 63.0°F 84% 30.06 in 10.0 miles Calm Calm - N/A   Partly Cloudy
4:53 AM 66.9°F 63.0°F 87% 30.06 in 10.0 miles Calm Calm - N/A   Clear
5:53 AM 64.9°F 62.1°F 90% 30.07 in 10.0 miles Calm Calm - N/A   Partly Cloudy
7:53 AM 66.9°F 64.0°F 90% 30.09 in 10.0 miles Calm Calm - N/A   Scattered Clouds
8:53 AM 75.9°F 66.9°F 74% 30.11 in 10.0 miles SE 9.2 mph - N/A   Partly Cloudy
9:53 AM 79.0°F 66.9°F 66% 30.12 in 10.0 miles SE 8.1 mph - N/A   Scattered Clouds
10:53 AM 80.1°F 66.0°F 62% 30.10 in 10.0 miles ESE 15.0 mph - N/A   Scattered Clouds
11:53 AM 80.1°F 66.9°F 64% 30.08 in 10.0 miles SE 9.2 mph - N/A   Mostly Cloudy
12:53 PM 75.9°F 69.1°F 79% 30.06 in 10.0 miles SE 9.2 mph - 0.00 in Rain Light Rain
1:53 PM 79.0°F 66.9°F 66% 30.04 in 10.0 miles ESE 12.7 mph - 0.00 in   Mostly Cloudy
2:53 PM 78.1°F 68.0°F 71% 30.03 in 10.0 miles SE 12.7 mph - N/A   Mostly Cloudy
3:53 PM 77.0°F 66.9°F 71% 30.04 in 10.0 miles SE 9.2 mph - N/A   Mostly Cloudy
4:53 PM 77.0°F 66.9°F 71% 30.05 in 10.0 miles SE 9.2 mph - N/A   Mostly Cloudy
5:53 PM 75.9°F 68.0°F 76% 30.06 in 10.0 miles ESE 8.1 mph - N/A   Scattered Clouds
6:53 PM 75.0°F 68.0°F 79% 30.07 in 10.0 miles SE 5.8 mph - N/A   Partly Cloudy
7:53 PM 73.9°F 68.0°F 82% 30.08 in 10.0 miles SE 4.6 mph - N/A   Partly Cloudy
8:53 PM 73.9°F 68.0°F 82% 30.08 in 10.0 miles ESE 3.5 mph - N/A   Partly Cloudy
9:53 PM 73.0°F 68.0°F 84% 30.08 in 10.0 miles SSE 3.5 mph - N/A   Partly Cloudy
10:53 PM 72.0°F 68.0°F 87% 30.07 in 10.0 miles Calm Calm - N/A   Partly Cloudy
11:53 PM 69.1°F 66.9°F 93% 30.06 in 10.0 miles Calm Calm - N/A   Scattered Clouds